Flag for Switzerland Weather past 2 weeks in Lausanne, Vaud, Switzerland

Now
52 °F

Cool.


Feels Like: 52 °F
Forecast: 49 / 69 °F
Wind: 2 mph from South

Location: Aigle

Current Time: Oct 1, 2014 at 6:59:58 AM

Latest Report: Oct 1, 2014 at 6:00 AM


Visibility: N/A

Pressure: 30.31 "Hg

Humidity: 99%

Dew point: 52 °F

Location of LausanneLocation

Historic Weather in Lausanne — Graph

°F

Lausanne temperature yesterday

Maximum temperature yesterday: 65 °F (at 6:00 PM)
Minimum temperature yesterday: 58 °F (at 6:00 AM)
Average temperature yesterday: 61 °F

Past Weeks' High & Low Weather Summary

 TemperatureHumidityPressure
High72 °F (Sep 16, 5:00 PM)98% (Sep 20, 8:00 AM)30.34 "Hg (Sep 20, 8:00 AM)
Low44 °F (Sep 26, 5:00 AM)52% (Sep 22, 4:00 PM)29.82 "Hg (Sep 17, 3:00 PM)
Average60 °F82%30.10 "Hg
* Reported Sep 16 5:00 AM — Oct 1 5:00 AM, Lausanne, Weather by CustomWeather, © 2014

Note: Actual official high and low records may vary slightly from our data, if they occured in-between our weather recording intervals... More about our weather records

Advertising

Lausanne weather history for previous 24 hours

 ConditionsComfort  
Time TempWeatherWind HumidityBarometerVisibility
5:00 AM
Oct 1
54 °FFog.2 mph98%30.31 "Hg6 mi
4:00 AM54 °FCool.No wind98%30.31 "HgN/A
3:00 AM54 °FCool.1 mph98%30.31 "HgN/A
2:00 AM57 °FCool.No wind98%30.30 "HgN/A
1:00 AM57 °FCool.No wind97%30.30 "HgN/A
12:00 AM59 °FCool.3 mph97%30.30 "HgN/A
11:00 PM
Sep 30
58 °FCool.1 mph98%30.31 "HgN/A
10:00 PM60 °FCool.1 mph98%30.31 "HgN/A
9:00 PM61 °FCool.2 mph95%30.30 "HgN/A
8:00 PM62 °FFog.3 mph92%30.29 "Hg4 mi
7:00 PM64 °FMild.2 mph89%30.27 "HgN/A
6:00 PM65 °FMild.1 mph80%30.27 "HgN/A
5:00 PM65 °FMild.No wind85%30.28 "HgN/A
4:00 PM65 °FMild.2 mph88%30.29 "HgN/A
3:00 PM65 °FMild.1 mph82%30.30 "HgN/A
2:00 PM64 °FFog.No wind84%30.31 "Hg6 mi
1:00 PM62 °FMild.3 mph91%30.33 "HgN/A
12:00 PM62 °FCool.3 mph93%30.32 "HgN/A
11:00 AM62 °FCool.2 mph90%30.32 "HgN/A
10:00 AM60 °FCool.No wind94%30.32 "HgN/A
9:00 AM59 °FCool.1 mph91%30.30 "HgN/A
8:00 AM58 °FOvercast.3 mph94%30.30 "Hg16 mi
7:00 AM58 °FCool.2 mph96%30.30 "HgN/A
6:00 AM58 °FCool.No wind98%30.30 "HgN/A
Weather by CustomWeather, © 2014

See weather overviewHow to use our weather pages